North Vernon, Indiana, United States (47265)
Lat: 39.01N, Lon: 85.62W
Wx Zone: INZ072
Local Info
Past Weather Observations for Thursday, October 16, 2014

NOTE: This archive is for the closest National Weather Service station to North Vernon. Information may differ from the station used for current weather conditions.

Click here for Long-term Archive

Time Weather Temperature Dewpoint Humidity Pressure Winds Precip Visibility
23:53
Overcast
55°F / 13°C 50°F / 10°C 82% 29.8 in
(1009 mb)
S 6.9 mph
(S 11 kph)
- 10SM
23:33
Overcast
55°F / 13°C 50°F / 10°C 82% 29.8 in
(1009 mb)
SSE 10.4 mph
(SSE 17 kph)
- 10SM
23:09
Overcast
55°F / 13°C 50°F / 10°C 82% 29.83 in
(1010 mb)
SSE 9.2 mph
(SSE 15 kph)
- 10SM
22:53
Overcast
55°F / 13°C 50°F / 10°C 82% 29.83 in
(1010 mb)
SW 10.4 mph
(SW 17 kph)
- 10SM
21:53
Overcast
57°F / 14°C 52°F / 11°C 82% 29.83 in
(1010 mb)
SW 11.5 mph
(SW 19 kph)
- 10SM
21:51
Overcast
57°F / 14°C 52°F / 11°C 82% 29.83 in
(1010 mb)
SW 12.7 mph
(SW 20 kph)
- 10SM
21:19
Overcast
57°F / 14°C 52°F / 11°C 82% 29.83 in
(1010 mb)
SW 11.5 mph
(SW 19 kph)
- 10SM
21:09
Overcast
57°F / 14°C 52°F / 11°C 82% 29.83 in
(1010 mb)
SSE 11.5 mph
(SSE 19 kph)
- 10SM
20:53
Overcast
57°F / 14°C 52°F / 11°C 82% 29.83 in
(1010 mb)
SW 11.5 mph
(SW 19 kph)
- 10SM
19:53
Overcast
57°F / 14°C 52°F / 11°C 82% 29.83 in
(1010 mb)
SW 9.2 mph
(SW 15 kph)
- 10SM
18:53
Mostly Cloudy
57°F / 14°C 52°F / 11°C 82% 29.83 in
(1010 mb)
SW 8.1 mph
(SW 13 kph)
- 10SM
17:53
Overcast
61°F / 16°C 52°F / 11°C 72% 29.8 in
(1009 mb)
SSW 9.2 mph
(SSW 15 kph)
- 10SM
16:53
Overcast
63°F / 17°C 52°F / 11°C 68% 29.83 in
(1010 mb)
SSW 10.4 mph
(SSW 17 kph)
- 10SM
15:53
Overcast
63°F / 17°C 52°F / 11°C 68% 29.8 in
(1009 mb)
W 11.5 mph
(W 19 kph)
- 10SM
14:53
Overcast
63°F / 17°C 52°F / 11°C 68% 29.8 in
(1009 mb)
SSW 9.2 mph
(SSW 15 kph)
- 10SM
13:53
Overcast
64°F / 18°C 52°F / 11°C 64% 29.8 in
(1009 mb)
SSW 8.1 mph
(SSW 13 kph)
- 10SM
12:53
Overcast
63°F / 17°C 52°F / 11°C 68% 29.83 in
(1010 mb)
W 11.5 mph
(W 19 kph)
- 10SM
11:53
Mostly Cloudy
63°F / 17°C 52°F / 11°C 68% 29.83 in
(1010 mb)
NW 8.1 mph
(NW 13 kph)
- 10SM
11:12
Overcast
61°F / 16°C 54°F / 12°C 77% 29.83 in
(1010 mb)
WNW 8.1 mph
(WNW 13 kph)
- 10SM
10:53
Overcast
61°F / 16°C 54°F / 12°C 77% 29.83 in
(1010 mb)
WNW 10.4 mph
(WNW 17 kph)
- 9SM
10:42
Overcast
61°F / 16°C 54°F / 12°C 77% 29.83 in
(1010 mb)
W 9.2 mph
(W 15 kph)
- 8SM
10:33
Overcast
61°F / 16°C 54°F / 12°C 77% 29.83 in
(1010 mb)
NW 8.1 mph
(NW 13 kph)
- 9SM
09:53
Overcast
57°F / 14°C 54°F / 12°C 88% 29.83 in
(1010 mb)
WNW 11.5 mph
(WNW 19 kph)
- 8SM
09:43
Overcast
57°F / 14°C 54°F / 12°C 88% 29.83 in
(1010 mb)
NW 10.4 mph
(NW 17 kph)
- 8SM
09:36
Overcast
59°F / 15°C 54°F / 12°C 82% 29.83 in
(1010 mb)
NW 9.2 mph
(NW 15 kph)
- 8SM
09:22
Overcast
59°F / 15°C 54°F / 12°C 82% 29.83 in
(1010 mb)
NW 5.8 mph
(NW 9 kph)
- 7SM
08:53
Overcast
Fog And Mist
57°F / 14°C 54°F / 12°C 88% 29.83 in
(1010 mb)
WNW 8.1 mph
(WNW 13 kph)
- 6SM
08:33
Overcast
Fog And Mist
57°F / 14°C 54°F / 12°C 88% 29.83 in
(1010 mb)
WNW 6.9 mph
(WNW 11 kph)
- 6SM
08:20
Overcast
Fog And Mist
55°F / 13°C 54°F / 12°C 94% 29.8 in
(1009 mb)
WNW 4.6 mph
(WNW 7 kph)
- 6SM
07:53
Overcast
Fog And Mist
55°F / 13°C 54°F / 12°C 94% 29.83 in
(1010 mb)
NW 4.6 mph
(NW 7 kph)
- 6SM
06:53
Overcast
55°F / 13°C 54°F / 12°C 94% 29.8 in
(1009 mb)
NW 3.5 mph
(NW 6 kph)
- 7SM
05:53
Overcast
55°F / 13°C 54°F / 12°C 94% 29.77 in
(1008 mb)
NW 3.5 mph
(NW 6 kph)
- 8SM
05:05
Mostly Cloudy
55°F / 13°C 54°F / 12°C 94% 29.77 in
(1008 mb)
NW 5.8 mph
(NW 9 kph)
- 8SM
04:53
Overcast
55°F / 13°C 52°F / 11°C 88% 29.77 in
(1008 mb)
NW 6.9 mph
(NW 11 kph)
- 9SM
04:08
Overcast
55°F / 13°C 54°F / 12°C 94% 29.74 in
(1007 mb)
N 4.6 mph
(N 7 kph)
- 8SM
03:53
Overcast
Fog And Mist
55°F / 13°C 54°F / 12°C 94% 29.74 in
(1007 mb)
NNW 8.1 mph
(NNW 13 kph)
- 4SM
03:44
Overcast
55°F / 13°C 54°F / 12°C 94% 29.74 in
(1007 mb)
NW 8.1 mph
(NW 13 kph)
- 8SM
03:41
Overcast
55°F / 13°C 54°F / 12°C 94% 29.74 in
(1007 mb)
NW 6.9 mph
(NW 11 kph)
- 9SM
03:32
Overcast
55°F / 13°C 54°F / 12°C 94% 29.74 in
(1007 mb)
NNW 6.9 mph
(NNW 11 kph)
- 10SM
03:06
Overcast
55°F / 13°C 54°F / 12°C 94% 29.74 in
(1007 mb)
NW 6.9 mph
(NW 11 kph)
- 8SM
02:53
Overcast
55°F / 13°C 54°F / 12°C 94% 29.74 in
(1007 mb)
NW 5.8 mph
(NW 9 kph)
- 8SM
01:53
Overcast
Fog And Mist
55°F / 13°C 54°F / 12°C 94% 29.74 in
(1007 mb)
NNW 4.6 mph
(NNW 7 kph)
- 6SM
01:27
Overcast
55°F / 13°C 54°F / 12°C 94% 29.74 in
(1007 mb)
N 3.5 mph
(N 6 kph)
- 7SM
01:11
Overcast
55°F / 13°C 54°F / 12°C 94% 29.74 in
(1007 mb)
NNW 4.6 mph
(NNW 7 kph)
- 8SM
01:04
Overcast
55°F / 13°C 54°F / 12°C 94% 29.74 in
(1007 mb)
NNW 4.6 mph
(NNW 7 kph)
- 8SM
00:53
Overcast
55°F / 13°C 54°F / 12°C 94% 29.74 in
(1007 mb)
NNW 4.6 mph
(NNW 7 kph)
0.00 in
(0.00 mm)
9SM
00:33
Overcast
55°F / 13°C 54°F / 12°C 94% 29.74 in
(1007 mb)
NNW 3.5 mph
(NNW 6 kph)
0.00 in
(0.00 mm)
7SM
00:18
Overcast
Fog And Mist
55°F / 13°C 54°F / 12°C 94% 29.74 in
(1007 mb)
NW 4.6 mph
(NW 7 kph)
0.00 in
(0.00 mm)
5SM
00:03
Overcast
Fog And Mist
55°F / 13°C 54°F / 12°C 94% 29.74 in
(1007 mb)
Calm 0.00 in
(0.00 mm)
5SM
Time Weather Temperature Dewpoint Humidity Pressure Winds Precip Visibility


Weather for websites

WeatherForYou.com, LLC is not responsible for any damages or problems caused by this service. Current weather conditions are obtained from the closest station including government and personal stations which may have varying degrees of accuracy. Weather forecasts are derived from the NOAA NDFD. Like all things, this site belongs to Jesus Christ... He just trusts me to maintain it. If you have any questions or comments email webmaster@weatherforyou.com

Copyright © 2014, WeatherForYou.com LLC. All rights reserved.